Vorticity
10 10 10 9 8 7 7 6 6 6 6 6 5 6 6 6 6 7 7 7 7 8 8 8 9 9 10 10 11 12 12 12 12 12 12 12 12 13 13 13 12 12 12 12 10 6 2 -1 -3 -2 0 2 3 4 5 4 4 4 4 4 4 4 4 5 6 8 9 10 10
11 10 10 10 9 9 8 8 8 8 8 8 8 8 8 8 8 9 9 9 9 9 9 10 10 10 11 11 11 12 11 11 11 10 10 10 10 10 10 10 10 9 9 9 8 6 3 1 0 1 2 4 4 4 5 4 4 4 5 5 5 5 6 7 8 9 10 9 9
9 10 10 10 10 10 11 11 11 11 12 12 11 11 11 11 11 11 11 11 11 11 11 11 11 11 11 11 11 11 10 10 9 8 8 8 8 8 7 7 7 6 6 6 6 5 5 4 4 4 4 4 4 5 5 5 5 5 5 5 5 6 8 9 10 10 9 8 7
10 10 11 11 12 13 13 14 15 15 15 15 15 15 14 14 14 13 13 12 12 12 11 11 11 11 11 10 10 10 9 8 7 7 6 6 6 6 5 5 5 5 4 4 4 4 4 5 4 4 4 4 5 5 6 6 5 5 5 5 6 8 10 11 12 11 8 6 5
12 12 13 13 14 14 15 16 16 17 17 17 16 16 15 15 14 14 13 13 12 12 11 11 10 10 10 9 9 8 8 7 6 6 5 5 5 5 4 4 4 4 4 4 6 9 10 8 5 4 4 5 6 7 6 5 4 4 5 6 8 9 11 12 12 10 7 5 5
13 14 14 15 15 16 16 16 17 17 16 16 16 15 15 14 14 14 13 13 12 12 11 11 10 10 10 9 9 8 8 7 6 6 5 5 5 5 5 7 6 5 4 4 4 4 3 4 5 5 5 7 9 8 6 4 4 5 6 7 9 10 11 11 10 9 8 7 7
15 15 15 15 15 16 16 16 15 15 15 14 14 14 14 13 13 13 13 13 12 12 12 12 11 10 10 9 9 9 8 8 7 7 6 6 6 6 6 7 7 7 6 5 5 4 4 4 4 5 7 10 8 5 2 3 6 7 8 8 9 10 10 10 9 9 9 10 10
15 15 15 15 15 14 14 13 13 12 12 12 12 12 12 12 12 12 13 13 13 13 12 12 12 11 11 10 10 9 9 8 8 9 10 12 11 10 10 10 10 11 11 11 10 8 4 2 3 5 6 7 3 1 2 6 8 9 10 10 11 11 10 10 10 10 10 11 11
15 15 14 14 13 12 11 10 10 10 9 10 10 10 11 11 11 12 12 12 13 13 12 12 12 12 12 11 11 10 10 9 9 8 8 8 7 6 4 2 1 1 0 -1 -1 -1 0 1 3 5 6 6 5 6 8 10 10 11 11 12 12 11 10 10 10 10 10 10 10
14 13 12 11 10 10 9 8 8 8 8 9 9 10 10 10 11 11 11 12 12 12 12 12 12 12 12 12 11 11 10 10 10 8 5 3 4 4 3 2 3 3 4 4 5 6 6 7 8 8 9 10 10 11 11 11 11 12 12 12 12 11 11 10 10 10 10 9 10
12 11 10 9 8 8 8 8 8 8 8 9 9 9 10 10 11 11 11 11 11 11 11 11 11 12 12 12 11 11 11 10 10 9 9 8 8 8 7 7 7 7 7 7 8 9 9 10 10 10 11 11 11 12 12 12 11 11 11 11 11 11 11 10 10 10 10 10 10
11 10 9 8 8 7 7 7 8 8 8 8 9 9 10 10 10 10 10 10 11 11 11 11 11 11 11 11 11 11 11 10 10 10 9 9 9 9 9 9 9 9 9 9 10 11 11 11 12 12 12 12 12 12 12 11 11 11 11 11 11 10 10 10 10 10 10 10 10
10 9 9 8 8 8 7 7 8 8 8 9 9 9 10 10 10 10 10 10 10 10 10 10 10 10 10 10 10 10 10 10 10 10 10 9 9 9 9 10 10 10 10 11 11 12 12 12 12 12 12 13 12 11 10 10 10 11 11 11 11 10 10 10 10 10 10 10 10
11 10 9 8 8 8 8 8 8 8 9 9 10 10 10 11 11 10 10 10 10 10 10 9 9 9 9 9 10 10 10 10 10 10 10 9 10 10 10 10 10 10 10 10 11 11 11 11 11 11 11 11 11 10 10 10 10 11 11 11 11 11 11 10 10 10 9 9 10
11 10 9 9 8 8 8 9 9 10 10 11 11 11 11 11 11 11 10 10 10 10 10 9 9 9 9 9 10 10 10 10 10 9 9 9 9 9 9 10 9 9 10 10 10 11 11 11 11 10 10 10 10 10 10 11 11 12 12 12 12 12 11 10 10 9 9 10 10
11 10 9 9 9 9 10 10 11 11 12 12 12 12 12 12 12 11 11 10 10 10 10 9 9 10 10 10 10 10 10 9 9 9 9 9 9 9 9 10 10 10 10 11 11 11 11 11 11 10 10 10 10 11 12 12 13 13 13 13 12 11 10 10 9 9 10 10 11
10 9 9 9 10 10 11 12 12 13 13 13 13 13 13 13 12 12 11 11 10 10 10 10 10 10 10 10 10 9 9 9 9 9 9 9 10 10 10 10 10 11 11 12 12 12 11 11 10 10 10 11 12 13 13 14 13 13 13 12 11 10 9 9 9 10 10 11 11
9 9 9 10 11 11 12 12 12 13 13 13 13 13 13 13 12 12 12 11 11 10 10 10 10 10 9 9 9 9 9 9 9 9 9 9 10 10 10 10 11 11 11 11 11 11 11 10 10 11 11 13 14 14 14 14 13 12 12 11 10 9 9 9 10 10 11 11 11
9 9 9 10 10 11 11 11 11 11 12 12 12 12 12 12 12 12 11 11 11 10 10 10 9 9 9 9 9 9 9 9 9 9 9 9 10 10 10 10 11 11 11 11 10 10 10 11 12 13 13 14 14 14 14 13 12 11 10 9 9 9 9 10 10 11 11 11 11
8 8 8 9 9 9 9 9 9 10 10 10 10 10 10 10 10 10 9 9 9 9 9 8 8 8 8 8 8 8 9 9 9 9 9 10 10 10 10 10 11 11 11 10 10 11 12 13 14 15 15 15 14 14 13 12 11 10 10 9 9 10 10 11 11 11 11 11 11
7 7 7 7 8 8 8 8 9 9 9 9 9 9 9 8 8 8 8 8 8 8 8 8 8 8 8 8 8 9 9 9 9 10 10 10 11 11 11 11 11 11 11 11 12 13 14 15 16 16 15 14 14 13 12 11 10 10 9 10 10 11 11 12 11 11 11 11 11
7 7 8 8 9 9 10 10 10 10 10 10 10 10 9 9 9 9 9 9 9 9 9 9 9 9 9 9 9 9 9 10 10 11 12 12 12 12 12 12 12 12 13 14 15 16 17 17 16 15 14 13 13 12 11 10 9 9 10 11 11 11 12 11 11 11 11 11 12
9 10 11 11 12 12 13 13 13 13 13 12 12 11 11 11 10 10 10 10 10 10 10 10 10 10 10 10 10 11 11 13 14 15 15 15 15 15 15 15 15 16 17 18 18 18 17 16 15 14 13 12 11 10 10 9 9 10 11 11 12 12 11 11 11 12 13 14 15
14 14 15 15 16 16 16 16 15 15 14 13 13 12 12 11 11 11 11 10 10 10 11 11 11 11 12 13 14 15 17 18 19 20 20 20 19 19 19 19 19 19 19 19 18 17 15 14 12 11 11 10 9 9 9 9 10 11 11 12 12 12 12 13 14 14 15 17 18
17 17 17 17 17 16 16 15 14 14 13 12 12 12 11 11 11 11 11 11 12 12 12 13 13 14 15 17 19 21 22 23 23 23 23 22 22 21 21 20 20 19 18 17 15 13 12 11 10 9 8 8 8 9 9 11 11 12 13 13 13 14 14 15 16 17 18 18 18
17 16 16 15 15 14 14 13 13 12 12 12 12 12 12 12 12 13 13 13 14 15 15 16 17 19 20 22 23 24 25 25 24 24 23 22 21 20 19 18 17 16 14 13 11 10 9 8 8 8 8 9 9 10 11 12 13 14 15 15 16 16 17 17 17 17 17 16 15
14 13 13 13 13 12 12 12 12 12 13 13 13 13 13 14 15 15 16 16 17 18 19 20 21 23 24 25 25 25 24 24 23 22 21 19 18 17 16 14 13 12 11 9 8 8 7 7 8 9 10 11 12 13 14 15 16 17 17 18 18 18 17 16 15 14 12 11 10
11 11 11 11 11 11 11 12 12 13 13 14 14 15 15 16 17 17 18 19 20 21 22 23 24 24 25 25 24 23 22 20 19 17 16 15 14 13 12 11 10 9 9 8 8 8 8 9 10 12 13 14 16 17 18 18 19 19 18 18 17 15 14 12 10 9 7 6 5
10 10 10 10 10 10 11 12 12 13 14 15 16 16 17 18 18 19 20 21 22 23 24 25 24 24 23 22 20 18 17 15 13 12 12 11 10 10 9 9 9 8 8 8 9 10 11 12 13 15 16 18 19 20 20 20 18 17 15 13 11 10 8 7 6 5 5 5 5
9 9 9 9 9 10 11 12 14 15 16 16 17 17 18 19 20 21 22 23 24 24 23 21 21 20 19 16 14 12 11 10 10 9 9 9 9 9 10 10 10 10 10 11 12 13 14 15 17 18 19 20 20 19 18 16 13 11 9 7 6 6 5 5 5 6 6 7 8
9 9 9 9 9 11 12 14 15 16 17 17 18 19 20 20 22 22 23 23 22 20 18 17 16 14 12 10 9 9 8 8 8 9 9 10 11 11 11 11 12 12 13 13 14 15 16 17 18 19 18 17 16 13 11 9 7 6 5 5 5 5 6 6 7 8 9 10 10
9 9 10 10 10 12 14 16 17 17 17 17 19 20 21 22 21 20 19 18 16 15 13 12 11 10 9 8 8 8 9 9 10 11 12 12 12 12 13 13 14 14 14 15 15 16 16 17 16 15 13 11 9 7 6 5 5 5 5 5 6 7 7 8 9 9 9 9 9
11 10 10 10 11 13 15 16 17 17 17 18 19 20 20 19 17 16 15 13 12 11 10 9 9 9 9 9 10 11 12 13 13 13 14 14 13 13 14 14 14 14 14 14 14 14 14 13 11 9 7 6 5 4 4 4 5 5 6 6 7 7 8 8 8 8 8 8 8
11 11 11 11 12 14 15 17 17 16 16 17 18 18 17 15 13 12 11 10 10 10 9 10 10 11 12 12 13 13 14 14 14 14 14 14 14 14 14 13 13 12 12 12 12 11 10 8 6 5 4 4 4 4 4 5 5 6 6 6 6 6 7 7 7 7 7 7 7
12 12 12 12 13 14 16 17 16 16 16 17 16 15 14 13 12 11 10 10 11 12 13 13 14 14 15 15 15 15 14 14 14 14 13 13 13 12 12 11 10 10 10 10 9 7 6 5 4 4 4 4 4 4 5 5 5 5 5 5 6 6 6 6 6 6 7 7 7
12 12 12 12 13 15 16 16 16 16 16 16 15 14 13 13 13 13 12 12 14 15 15 15 15 16 15 15 15 14 14 13 12 12 12 11 11 10 9 8 8 8 8 7 6 5 4 4 4 4 4 4 5 5 5 5 5 5 5 5 5 6 6 6 6 6 7 7 7
12 12 12 13 14 15 15 16 16 16 16 16 15 14 13 13 14 14 14 14 15 15 15 14 15 15 14 13 13 13 12 11 10 10 9 9 9 8 7 6 6 6 6 5 5 4 4 4 5 5 5 5 5 5 5 5 5 5 5 6 6 6 6 6 6 7 7 7 7
12 12 13 13 14 14 15 15 16 16 16 15 14 14 14 14 14 13 13 14 14 13 12 12 13 13 12 11 10 10 10 10 9 8 7 6 7 6 6 6 5 5 5 5 5 5 5 5 5 5 5 5 5 5 5 5 5 6 6 6 6 6 6 6 7 7 7 7 7
12 12 12 13 13 13 13 14 15 15 14 13 13 13 13 13 12 12 11 11 11 10 10 10 11 10 9 9 8 8 7 7 7 6 6 5 6 6 6 6 5 5 5 5 6 6 6 6 6 6 6 6 6 6 5 5 5 5 6 6 6 6 6 7 7 7 7 7 7
12 12 12 12 12 12 12 13 13 12 12 11 11 11 11 11 10 9 8 9 10 10 9 9 9 8 7 7 7 6 5 5 6 6 6 5 5 6 6 6 5 5 6 6 6 6 6 6 6 6 6 6 6 6 5 5 5 6 6 6 6 6 7 7 7 7 7 7 7
11 11 11 11 11 11 11 11 11 11 10 11 11 10 9 8 8 8 8 9 10 9 9 8 7 6 6 7 6 5 5 5 5 6 6 6 6 6 6 6 6 6 6 6 6 6 6 6 6 6 6 6 6 6 6 6 6 6 6 6 7 7 7 7 8 8 8 8 8
Height
3117 3117 3117 3117 3117 3117 3117 3117 3117 3116 3116 3116 3115 3115 3115 3115 3115 3115 3115 3115 3115 3115 3115 3115 3115 3115 3115 3115 3115 3115 3115 3115 3114 3114 3114 3114 3114 3114 3114 3114 3114 3114 3114 3114 3113 3113 3113 3113 3112 3112 3112 3112 3111 3111 3110 3110 3109 3109 3109 3109 3108 3108 3108 3107 3107 3107 3106 3106 3106
3115 3115 3115 3115 3115 3115 3115 3115 3114 3114 3114 3113 3113 3113 3113 3112 3112 3112 3112 3112 3112 3112 3113 3113 3113 3113 3113 3113 3113 3113 3113 3112 3112 3112 3112 3112 3112 3112 3112 3112 3112 3112 3112 3112 3112 3112 3111 3111 3111 3111 3110 3110 3110 3109 3109 3108 3108 3108 3107 3107 3107 3106 3106 3105 3105 3104 3104 3104 3103
3112 3112 3112 3112 3112 3112 3112 3112 3112 3112 3112 3111 3111 3111 3110 3110 3110 3110 3110 3110 3110 3110 3110 3110 3110 3111 3111 3111 3111 3111 3111 3110 3110 3110 3110 3110 3110 3110 3110 3110 3110 3110 3110 3110 3110 3109 3109 3109 3109 3109 3109 3108 3108 3108 3107 3107 3106 3106 3106 3105 3105 3104 3104 3103 3103 3102 3102 3102 3101
3110 3110 3110 3110 3110 3110 3110 3110 3110 3109 3109 3109 3109 3108 3108 3108 3108 3108 3108 3108 3108 3108 3108 3108 3108 3108 3108 3108 3108 3108 3108 3108 3108 3108 3108 3108 3108 3107 3107 3108 3108 3108 3108 3108 3107 3107 3107 3107 3107 3107 3107 3107 3106 3106 3106 3105 3105 3104 3104 3103 3103 3102 3102 3101 3101 3100 3100 3099 3098
3107 3107 3107 3107 3107 3107 3107 3107 3107 3107 3107 3107 3107 3106 3106 3106 3106 3105 3105 3105 3105 3105 3105 3105 3105 3106 3106 3106 3106 3106 3106 3106 3106 3106 3106 3106 3106 3105 3105 3105 3106 3106 3105 3105 3105 3106 3106 3105 3105 3105 3105 3105 3104 3104 3103 3103 3102 3102 3102 3101 3101 3100 3100 3099 3098 3098 3097 3097 3096
3105 3105 3105 3105 3105 3105 3105 3105 3105 3105 3105 3104 3104 3104 3104 3103 3103 3103 3103 3103 3103 3103 3103 3103 3103 3103 3103 3103 3103 3103 3103 3103 3103 3103 3103 3103 3103 3103 3103 3103 3103 3103 3103 3103 3103 3103 3104 3103 3103 3102 3102 3102 3102 3102 3101 3101 3100 3100 3099 3099 3098 3098 3097 3097 3096 3095 3095 3094 3093
3102 3102 3102 3102 3102 3102 3102 3102 3102 3102 3102 3102 3102 3102 3102 3101 3101 3101 3101 3101 3101 3101 3101 3101 3101 3101 3101 3101 3101 3101 3101 3101 3101 3101 3101 3101 3101 3101 3101 3101 3101 3101 3101 3101 3101 3101 3101 3101 3100 3100 3100 3100 3100 3099 3099 3098 3098 3097 3097 3096 3096 3095 3095 3094 3093 3093 3092 3091 3091
3100 3100 3100 3100 3100 3100 3101 3101 3101 3101 3100 3100 3100 3100 3099 3099 3099 3099 3099 3099 3098 3098 3098 3098 3098 3098 3098 3098 3098 3098 3098 3098 3098 3099 3099 3099 3099 3099 3099 3099 3099 3099 3099 3099 3099 3099 3099 3098 3098 3098 3098 3098 3097 3097 3096 3096 3096 3095 3095 3094 3093 3092 3092 3091 3091 3090 3089 3089 3088
3098 3098 3098 3098 3098 3098 3098 3099 3099 3098 3098 3098 3098 3098 3097 3097 3097 3097 3097 3097 3097 3096 3096 3096 3096 3096 3096 3096 3096 3096 3096 3096 3096 3097 3097 3097 3097 3097 3097 3097 3097 3097 3097 3097 3097 3097 3097 3096 3096 3096 3096 3096 3095 3094 3094 3094 3093 3093 3092 3092 3091 3090 3089 3089 3088 3087 3087 3086 3085
3097 3097 3097 3097 3097 3097 3097 3097 3097 3097 3097 3096 3096 3096 3096 3095 3095 3095 3095 3094 3094 3094 3094 3094 3094 3094 3094 3094 3094 3094 3094 3094 3094 3094 3094 3094 3094 3094 3094 3094 3094 3094 3094 3094 3094 3094 3094 3094 3094 3094 3094 3093 3093 3092 3092 3092 3091 3091 3090 3089 3088 3088 3087 3087 3086 3085 3085 3084 3083
3095 3095 3095 3095 3095 3095 3095 3095 3095 3095 3095 3095 3094 3094 3094 3093 3093 3093 3092 3092 3092 3092 3092 3092 3092 3092 3092 3092 3092 3092 3092 3092 3092 3092 3092 3092 3092 3092 3092 3092 3092 3092 3092 3092 3092 3092 3092 3092 3092 3092 3092 3091 3091 3090 3090 3089 3089 3088 3087 3087 3086 3086 3085 3084 3084 3083 3082 3082 3081
3093 3093 3093 3093 3093 3093 3093 3093 3093 3093 3093 3093 3092 3092 3092 3092 3091 3091 3090 3090 3090 3090 3090 3089 3089 3089 3089 3090 3090 3090 3090 3090 3090 3090 3090 3090 3090 3090 3090 3090 3090 3090 3090 3090 3090 3090 3090 3090 3090 3090 3089 3089 3088 3088 3087 3087 3086 3086 3085 3084 3084 3083 3082 3082 3082 3081 3080 3080 3079
3091 3091 3091 3091 3091 3091 3091 3091 3091 3091 3091 3091 3090 3090 3090 3090 3089 3089 3088 3088 3088 3088 3088 3087 3087 3087 3087 3087 3087 3088 3088 3088 3088 3088 3087 3087 3087 3087 3088 3088 3088 3088 3088 3088 3088 3088 3088 3088 3088 3087 3087 3086 3086 3086 3085 3084 3084 3083 3083 3082 3082 3081 3080 3080 3079 3078 3078 3077 3077
3089 3089 3089 3089 3089 3089 3089 3089 3089 3088 3088 3088 3088 3088 3088 3087 3087 3087 3087 3087 3086 3086 3086 3086 3086 3086 3086 3086 3086 3086 3086 3086 3086 3086 3086 3086 3086 3086 3086 3086 3086 3086 3086 3086 3086 3086 3086 3086 3085 3085 3084 3084 3083 3083 3082 3082 3082 3081 3081 3080 3079 3079 3078 3077 3077 3077 3076 3076 3075
3087 3087 3087 3087 3087 3087 3087 3087 3087 3086 3086 3086 3086 3086 3086 3086 3085 3085 3085 3085 3085 3084 3084 3084 3084 3084 3084 3084 3084 3084 3084 3084 3084 3084 3084 3083 3084 3084 3084 3084 3084 3084 3084 3084 3084 3084 3083 3083 3083 3082 3082 3081 3081 3081 3080 3080 3079 3079 3078 3078 3077 3077 3076 3076 3075 3075 3074 3074 3073
3085 3085 3085 3085 3085 3085 3084 3084 3084 3084 3084 3084 3084 3084 3083 3083 3083 3083 3083 3083 3083 3083 3083 3082 3082 3082 3082 3082 3082 3082 3082 3082 3082 3082 3082 3082 3082 3082 3082 3082 3082 3082 3082 3082 3082 3081 3081 3081 3081 3080 3080 3079 3079 3078 3078 3077 3077 3077 3076 3076 3075 3075 3074 3073 3073 3073 3072 3072 3071
3083 3083 3083 3083 3083 3082 3082 3082 3082 3082 3082 3082 3082 3082 3081 3081 3081 3081 3081 3081 3081 3081 3081 3081 3081 3081 3081 3081 3081 3081 3080 3080 3080 3080 3080 3080 3080 3080 3080 3080 3080 3080 3080 3079 3079 3079 3079 3078 3078 3078 3077 3077 3077 3076 3076 3076 3075 3075 3074 3074 3073 3072 3072 3072 3071 3071 3071 3070 3070
3081 3081 3081 3081 3081 3081 3080 3080 3080 3080 3080 3080 3079 3079 3079 3079 3079 3079 3079 3079 3079 3079 3079 3079 3079 3079 3079 3079 3079 3079 3078 3078 3078 3078 3078 3078 3078 3078 3078 3078 3078 3077 3077 3077 3077 3077 3077 3076 3076 3076 3075 3075 3075 3074 3074 3073 3073 3073 3072 3072 3071 3071 3070 3070 3069 3069 3069 3068 3067
3080 3079 3079 3079 3079 3079 3078 3078 3078 3078 3078 3078 3077 3077 3077 3077 3077 3077 3077 3077 3077 3077 3077 3077 3077 3077 3077 3077 3077 3077 3076 3076 3076 3076 3076 3076 3076 3076 3076 3076 3076 3076 3075 3075 3075 3075 3074 3074 3074 3073 3073 3073 3072 3072 3072 3072 3071 3071 3070 3070 3069 3069 3068 3068 3067 3067 3067 3066 3066
3078 3078 3077 3077 3077 3077 3077 3077 3077 3076 3076 3076 3076 3076 3076 3076 3076 3076 3076 3076 3076 3076 3076 3075 3075 3075 3075 3075 3074 3074 3074 3074 3074 3074 3074 3074 3074 3074 3074 3074 3074 3073 3073 3073 3073 3073 3072 3072 3072 3072 3071 3071 3071 3070 3070 3070 3069 3069 3068 3067 3067 3067 3067 3066 3066 3065 3065 3064 3064
3076 3076 3076 3076 3076 3075 3075 3075 3075 3075 3075 3074 3074 3074 3074 3074 3074 3074 3074 3074 3074 3074 3073 3073 3073 3073 3073 3072 3072 3072 3072 3072 3072 3072 3072 3072 3072 3072 3072 3072 3072 3072 3072 3071 3071 3071 3071 3070 3070 3070 3069 3069 3069 3069 3068 3068 3067 3067 3066 3066 3065 3065 3065 3064 3064 3063 3063 3062 3062
3075 3074 3074 3074 3074 3074 3073 3073 3073 3073 3073 3073 3073 3072 3072 3072 3072 3072 3072 3072 3072 3072 3071 3071 3071 3071 3071 3070 3070 3070 3070 3070 3070 3070 3070 3070 3070 3070 3070 3070 3070 3070 3070 3070 3069 3069 3069 3069 3068 3068 3068 3068 3067 3067 3066 3066 3065 3065 3064 3064 3064 3063 3063 3062 3062 3062 3061 3061 3060
3073 3073 3072 3072 3072 3072 3072 3072 3072 3071 3071 3071 3071 3071 3071 3070 3070 3070 3070 3070 3070 3069 3069 3069 3069 3068 3068 3068 3068 3068 3068 3068 3068 3068 3068 3068 3068 3068 3068 3068 3068 3068 3068 3068 3068 3068 3067 3067 3067 3067 3066 3066 3066 3065 3065 3064 3064 3063 3063 3062 3062 3062 3061 3061 3060 3060 3059 3059 3058
3072 3071 3071 3071 3071 3071 3070 3070 3070 3070 3069 3069 3069 3069 3069 3068 3068 3068 3068 3068 3067 3067 3067 3067 3066 3066 3066 3066 3066 3066 3066 3066 3066 3066 3066 3066 3066 3066 3066 3067 3067 3067 3067 3067 3067 3066 3066 3066 3066 3065 3065 3064 3064 3063 3063 3062 3062 3062 3062 3061 3061 3060 3060 3059 3059 3058 3058 3057 3057
3070 3070 3070 3069 3069 3069 3069 3068 3068 3068 3068 3067 3067 3067 3067 3067 3067 3066 3066 3066 3065 3065 3065 3064 3064 3064 3064 3064 3064 3064 3064 3064 3064 3064 3064 3064 3064 3065 3065 3065 3065 3065 3066 3065 3065 3065 3065 3064 3064 3063 3063 3063 3062 3062 3061 3061 3061 3061 3060 3060 3059 3059 3058 3058 3057 3057 3057 3056 3056
3068 3068 3068 3068 3068 3067 3067 3067 3067 3067 3066 3066 3066 3065 3065 3065 3065 3064 3064 3064 3063 3063 3063 3062 3062 3062 3062 3062 3062 3062 3062 3062 3062 3062 3062 3063 3063 3063 3064 3064 3064 3064 3064 3064 3064 3063 3063 3063 3062 3062 3062 3061 3061 3060 3060 3060 3059 3059 3059 3058 3058 3058 3057 3057 3057 3056 3056 3055 3055
3067 3067 3067 3067 3067 3066 3066 3066 3065 3065 3065 3064 3064 3063 3063 3063 3063 3062 3062 3062 3062 3061 3061 3061 3061 3060 3060 3060 3060 3060 3060 3061 3061 3061 3062 3062 3062 3062 3062 3063 3063 3063 3063 3062 3062 3062 3062 3061 3061 3060 3060 3060 3059 3059 3059 3059 3058 3058 3058 3057 3057 3057 3056 3056 3056 3055 3055 3055 3054
3066 3066 3066 3065 3065 3065 3065 3064 3064 3063 3063 3062 3062 3062 3062 3061 3061 3061 3060 3060 3060 3059 3059 3059 3059 3059 3059 3059 3059 3059 3059 3060 3060 3060 3061 3061 3061 3062 3062 3062 3062 3062 3062 3061 3061 3061 3060 3060 3059 3059 3059 3059 3058 3058 3058 3058 3057 3057 3057 3057 3056 3056 3056 3055 3055 3055 3054 3054 3054
3065 3064 3064 3064 3063 3063 3063 3062 3062 3062 3061 3061 3061 3060 3060 3059 3059 3059 3058 3058 3058 3058 3058 3058 3058 3058 3058 3058 3058 3058 3059 3059 3059 3060 3060 3060 3060 3061 3061 3061 3061 3060 3060 3060 3059 3059 3059 3058 3058 3058 3058 3058 3057 3057 3057 3057 3057 3057 3056 3056 3056 3056 3055 3055 3055 3054 3054 3054 3053
3063 3063 3063 3062 3062 3062 3062 3061 3061 3060 3060 3059 3059 3059 3058 3058 3058 3057 3057 3057 3057 3057 3057 3057 3057 3057 3057 3057 3058 3058 3058 3058 3059 3059 3059 3059 3059 3059 3059 3059 3059 3059 3059 3058 3058 3058 3058 3058 3058 3057 3057 3057 3057 3057 3057 3057 3056 3056 3056 3056 3055 3055 3055 3055 3054 3054 3053 3053 3052
3062 3062 3062 3062 3061 3061 3060 3060 3059 3059 3058 3058 3058 3057 3057 3057 3057 3057 3057 3056 3056 3057 3057 3057 3057 3057 3057 3057 3057 3057 3057 3058 3058 3058 3058 3058 3058 3058 3058 3058 3058 3057 3057 3057 3057 3057 3057 3057 3057 3057 3057 3057 3057 3057 3056 3056 3056 3056 3056 3055 3055 3055 3054 3054 3053 3053 3052 3052 3052
3062 3061 3061 3060 3060 3060 3059 3059 3058 3058 3057 3057 3057 3057 3056 3056 3056 3056 3056 3056 3056 3056 3056 3056 3056 3057 3057 3057 3057 3057 3057 3057 3057 3057 3057 3057 3057 3057 3057 3057 3057 3057 3057 3057 3057 3057 3057 3057 3057 3057 3057 3057 3056 3056 3056 3056 3055 3055 3055 3055 3054 3054 3054 3053 3053 3052 3052 3051 3051
3060 3060 3060 3059 3059 3058 3058 3057 3057 3057 3056 3056 3056 3056 3056 3055 3056 3056 3056 3056 3056 3056 3056 3056 3056 3056 3056 3056 3056 3056 3056 3056 3056 3056 3056 3056 3056 3056 3056 3056 3056 3057 3057 3057 3057 3057 3057 3057 3057 3056 3056 3056 3056 3056 3055 3055 3055 3055 3054 3054 3054 3053 3053 3052 3052 3051 3051 3050 3049
3059 3059 3058 3058 3057 3057 3057 3057 3056 3056 3055 3055 3055 3055 3055 3055 3055 3055 3055 3055 3055 3055 3055 3055 3055 3055 3055 3055 3055 3055 3055 3055 3055 3055 3055 3055 3055 3055 3056 3056 3056 3057 3057 3057 3057 3056 3056 3056 3056 3056 3056 3056 3055 3055 3055 3054 3054 3054 3054 3053 3053 3052 3052 3051 3050 3050 3049 3049 3048
3058 3057 3057 3057 3057 3056 3056 3055 3055 3055 3055 3054 3054 3054 3054 3054 3054 3054 3054 3055 3055 3055 3055 3055 3055 3055 3055 3055 3055 3055 3055 3055 3055 3055 3055 3055 3055 3055 3056 3056 3056 3056 3056 3056 3056 3056 3056 3056 3056 3056 3055 3055 3055 3054 3054 3054 3053 3053 3053 3052 3052 3051 3050 3050 3049 3048 3048 3047 3047
3057 3057 3056 3056 3055 3055 3055 3054 3054 3054 3054 3054 3054 3054 3054 3054 3054 3054 3054 3054 3054 3054 3054 3054 3054 3054 3054 3054 3054 3054 3054 3054 3054 3054 3055 3055 3055 3056 3056 3056 3056 3056 3056 3056 3056 3056 3056 3055 3055 3055 3055 3054 3054 3053 3053 3053 3052 3052 3052 3051 3051 3050 3049 3049 3048 3047 3047 3046 3046
3056 3055 3055 3055 3054 3054 3054 3053 3053 3053 3053 3053 3053 3053 3053 3053 3053 3053 3053 3053 3053 3053 3053 3053 3053 3053 3053 3053 3054 3054 3054 3054 3054 3055 3055 3055 3056 3056 3056 3056 3056 3056 3056 3056 3056 3055 3055 3055 3055 3054 3054 3053 3053 3053 3052 3052 3052 3051 3050 3050 3049 3049 3048 3047 3047 3046 3046 3045 3044
3055 3054 3054 3054 3053 3053 3053 3053 3053 3053 3052 3052 3052 3052 3052 3052 3053 3053 3053 3053 3053 3053 3053 3053 3053 3053 3053 3053 3053 3054 3054 3054 3055 3055 3055 3056 3056 3056 3056 3056 3056 3056 3056 3055 3055 3055 3055 3054 3054 3053 3053 3053 3052 3052 3052 3051 3050 3050 3049 3049 3048 3048 3047 3047 3046 3045 3045 3044 3043
3054 3054 3053 3053 3053 3053 3052 3052 3052 3052 3052 3052 3052 3052 3052 3052 3052 3052 3052 3052 3052 3052 3052 3053 3053 3053 3053 3053 3054 3054 3054 3055 3055 3055 3056 3056 3056 3056 3056 3055 3055 3055 3055 3055 3055 3054 3054 3054 3053 3053 3052 3052 3052 3051 3051 3050 3049 3049 3048 3048 3047 3047 3046 3046 3045 3044 3044 3043 3042
3053 3053 3053 3053 3052 3052 3052 3052 3052 3052 3052 3052 3052 3052 3052 3052 3052 3052 3052 3052 3052 3052 3052 3053 3053 3053 3053 3054 3054 3054 3054 3055 3055 3055 3055 3055 3055 3055 3055 3055 3055 3055 3054 3054 3054 3053 3053 3053 3052 3052 3052 3051 3051 3050 3050 3049 3049 3048 3047 3047 3046 3046 3045 3044 3044 3043 3042 3042 3041
3053 3052 3052 3052 3052 3052 3052 3052 3052 3052 3052 3052 3052 3052 3052 3052 3052 3052 3052 3052 3052 3052 3052 3053 3053 3053 3053 3054 3054 3054 3054 3055 3055 3055 3055 3055 3055 3055 3054 3054 3054 3054 3054 3053 3053 3053 3052 3052 3052 3051 3051 3050 3050 3049 3049 3048 3048 3047 3046 3046 3045 3044 3044 3043 3042 3042 3041 3040 3040